Time,TemperatureF,DewpointF,PressureIn,WindDirection,WindDirectionDegrees,WindSpeedMPH,WindSpeedGustMPH,Humidity,HourlyPrecipIn,Conditions,Clouds,dailyrainin,SoftwareType,DateUTC
2013-04-03 00:03:00,37.0,8.0,30.07,NW,312,7.0,26.0,29,0.00,,,0.00,,2013-04-03 04:03:00,
2013-04-03 00:12:00,37.0,8.0,30.07,NW,312,7.0,26.0,29,0.00,,,0.00,,2013-04-03 04:12:00,
2013-04-03 00:23:00,37.0,8.0,30.07,WNW,285,6.0,26.0,29,0.00,,,0.00,,2013-04-03 04:23:00,
2013-04-03 00:33:00,36.0,7.0,30.07,NW,309,5.0,19.0,29,0.00,,,0.00,,2013-04-03 04:33:00,
2013-04-03 00:43:00,36.0,7.0,30.07,NW,309,5.0,19.0,29,0.00,,,0.00,,2013-04-03 04:43:00,
2013-04-03 00:53:00,36.0,7.0,30.07,WNW,285,5.0,19.0,29,0.00,,,0.00,,2013-04-03 04:53:00,
2013-04-03 01:02:00,36.0,6.0,30.07,West,272,9.0,19.0,28,0.00,,,0.00,,2013-04-03 05:02:00,
2013-04-03 01:12:00,36.0,6.0,30.07,West,272,9.0,19.0,28,0.00,,,0.00,,2013-04-03 05:12:00,
2013-04-03 01:22:00,36.0,7.0,30.07,WNW,292,5.0,19.0,29,0.00,,,0.00,,2013-04-03 05:22:00,
2013-04-03 01:32:00,35.0,5.0,30.07,NW,318,8.0,19.0,28,0.00,,,0.00,,2013-04-03 05:32:00,
2013-04-03 01:42:00,35.0,5.0,30.07,NW,318,8.0,19.0,28,0.00,,,0.00,,2013-04-03 05:42:00,
2013-04-03 01:52:00,35.0,6.0,30.07,West,268,8.0,19.0,29,0.00,,,0.00,,2013-04-03 05:52:00,
2013-04-03 02:02:00,35.0,7.0,30.07,WNW,292,5.0,19.0,30,0.00,,,0.00,,2013-04-03 06:02:00,
2013-04-03 02:12:00,35.0,7.0,30.07,WNW,292,5.0,19.0,30,0.00,,,0.00,,2013-04-03 06:12:00,
2013-04-03 02:22:00,35.0,8.0,30.06,WNW,291,5.0,19.0,32,0.00,,,0.00,,2013-04-03 06:22:00,
2013-04-03 02:32:00,35.0,9.0,30.06,WNW,287,6.0,19.0,33,0.00,,,0.00,,2013-04-03 06:32:00,
2013-04-03 02:42:00,35.0,9.0,30.06,WNW,287,6.0,19.0,33,0.00,,,0.00,,2013-04-03 06:42:00,
2013-04-03 02:52:00,35.0,9.0,30.06,WNW,290,8.0,19.0,33,0.00,,,0.00,,2013-04-03 06:52:00,
2013-04-03 03:02:00,34.0,9.0,30.06,WNW,294,5.0,19.0,35,0.00,,,0.00,,2013-04-03 07:02:00,
2013-04-03 03:12:00,34.0,9.0,30.06,WNW,294,5.0,19.0,35,0.00,,,0.00,,2013-04-03 07:12:00,
2013-04-03 03:23:00,34.0,10.0,30.06,WNW,303,7.0,19.0,36,0.00,,,0.00,,2013-04-03 07:23:00,
2013-04-03 03:32:00,34.0,10.0,30.06,WNW,288,7.0,19.0,36,0.00,,,0.00,,2013-04-03 07:32:00,
2013-04-03 03:42:00,34.0,10.0,30.06,WNW,288,7.0,19.0,36,0.00,,,0.00,,2013-04-03 07:42:00,
2013-04-03 03:53:00,34.0,11.0,30.06,WNW,290,8.0,24.0,37,0.00,,,0.00,,2013-04-03 07:53:00,
2013-04-03 04:03:00,34.0,11.0,30.06,WNW,291,3.0,24.0,38,0.00,,,0.00,,2013-04-03 08:03:00,
2013-04-03 04:12:00,34.0,11.0,30.06,WNW,291,3.0,24.0,38,0.00,,,0.00,,2013-04-03 08:12:00,
2013-04-03 04:22:00,34.0,12.0,30.06,NW,325,5.0,24.0,39,0.00,,,0.00,,2013-04-03 08:22:00,
2013-04-03 04:32:00,34.0,11.0,30.06,WNW,283,3.0,24.0,38,0.00,,,0.00,,2013-04-03 08:32:00,
2013-04-03 04:42:00,34.0,11.0,30.06,WNW,283,3.0,24.0,38,0.00,,,0.00,,2013-04-03 08:42:00,
2013-04-03 04:52:00,33.0,12.0,30.07,WNW,295,2.0,24.0,41,0.00,,,0.00,,2013-04-03 08:52:00,
2013-04-03 05:02:00,33.0,12.0,30.07,WNW,283,2.0,24.0,42,0.00,,,0.00,,2013-04-03 09:02:00,
2013-04-03 05:12:00,33.0,12.0,30.07,WNW,283,2.0,24.0,42,0.00,,,0.00,,2013-04-03 09:12:00,
2013-04-03 05:22:00,32.0,12.0,30.08,WSW,251,1.0,24.0,43,0.00,,,0.00,,2013-04-03 09:22:00,
2013-04-03 05:33:00,32.0,13.0,30.08,WNW,284,3.0,24.0,44,0.00,,,0.00,,2013-04-03 09:33:00,
2013-04-03 05:43:00,32.0,13.0,30.08,WNW,284,3.0,24.0,44,0.00,,,0.00,,2013-04-03 09:43:00,
2013-04-03 05:53:00,32.0,13.0,30.08,WNW,289,2.0,24.0,45,0.00,,,0.00,,2013-04-03 09:53:00,
2013-04-03 06:03:00,32.0,14.0,30.09,WNW,288,1.0,24.0,46,0.00,,,0.00,,2013-04-03 10:03:00,
2013-04-03 06:12:00,32.0,14.0,30.09,WNW,288,1.0,24.0,46,0.00,,,0.00,,2013-04-03 10:12:00,
2013-04-03 06:22:00,32.0,13.0,30.09,WSW,258,3.0,24.0,45,0.00,,,0.00,,2013-04-03 10:22:00,
2013-04-03 06:33:00,32.0,14.0,30.09,WNW,294,2.0,24.0,47,0.00,,,0.00,,2013-04-03 10:33:00,
2013-04-03 06:43:00,32.0,14.0,30.09,WNW,294,2.0,24.0,47,0.00,,,0.00,,2013-04-03 10:43:00,
2013-04-03 06:52:00,32.0,14.0,30.10,West,275,3.0,24.0,46,0.00,,,0.00,,2013-04-03 10:52:00,
2013-04-03 07:02:00,32.0,14.0,30.10,WNW,282,5.0,24.0,47,0.00,,,0.00,,2013-04-03 11:02:00,
2013-04-03 07:12:00,32.0,14.0,30.10,WNW,282,5.0,24.0,47,0.00,,,0.00,,2013-04-03 11:12:00,
2013-04-03 07:23:00,32.0,14.0,30.11,West,260,2.0,24.0,46,0.00,,,0.00,,2013-04-03 11:23:00,
2013-04-03 07:32:00,33.0,13.0,30.12,West,277,5.0,24.0,44,0.00,,,0.00,,2013-04-03 11:32:00,
2013-04-03 07:42:00,33.0,13.0,30.12,West,277,5.0,24.0,44,0.00,,,0.00,,2013-04-03 11:42:00,
2013-04-03 07:52:00,33.0,12.0,30.13,WNW,287,8.0,24.0,41,0.00,,,0.00,,2013-04-03 11:52:00,
2013-04-03 08:02:00,34.0,13.0,30.13,West,275,3.0,24.0,42,0.00,,,0.00,,2013-04-03 12:02:00,
2013-04-03 08:13:00,34.0,13.0,30.13,West,275,3.0,24.0,42,0.00,,,0.00,,2013-04-03 12:13:00,
2013-04-03 08:22:00,34.0,13.0,30.14,NW,316,7.0,24.0,42,0.00,,,0.00,,2013-04-03 12:22:00,
2013-04-03 08:33:00,34.0,12.0,30.14,WNW,293,9.0,24.0,40,0.00,,,0.00,,2013-04-03 12:33:00,
2013-04-03 08:42:00,34.0,12.0,30.14,WNW,293,9.0,24.0,40,0.00,,,0.00,,2013-04-03 12:42:00,
2013-04-03 08:52:00,35.0,13.0,30.14,WSW,247,5.0,24.0,40,0.00,,,0.00,,2013-04-03 12:52:00,
2013-04-03 09:02:00,35.0,12.0,30.13,WNW,298,7.0,24.0,38,0.00,,,0.00,,2013-04-03 13:02:00,
2013-04-03 09:12:00,35.0,12.0,30.13,WNW,298,7.0,24.0,38,0.00,,,0.00,,2013-04-03 13:12:00,
2013-04-03 09:22:00,36.0,12.0,30.13,NW,315,5.0,24.0,37,0.00,,,0.00,,2013-04-03 13:22:00,
2013-04-03 09:32:00,36.0,12.0,30.13,NNW,337,6.0,24.0,37,0.00,,,0.00,,2013-04-03 13:32:00,
2013-04-03 09:42:00,36.0,12.0,30.13,NNW,337,6.0,24.0,37,0.00,,,0.00,,2013-04-03 13:42:00,
2013-04-03 09:52:00,36.0,12.0,30.13,West,270,6.0,24.0,36,0.00,,,0.00,,2013-04-03 13:52:00,
2013-04-03 10:02:00,36.0,10.0,30.13,West,272,7.0,24.0,34,0.00,,,0.00,,2013-04-03 14:02:00,
2013-04-03 10:12:00,36.0,10.0,30.13,West,272,7.0,24.0,34,0.00,,,0.00,,2013-04-03 14:12:00,
2013-04-03 10:22:00,37.0,11.0,30.13,NW,305,6.0,24.0,34,0.00,,,0.00,,2013-04-03 14:22:00,
2013-04-03 10:32:00,37.0,9.0,30.13,NW,320,9.0,24.0,31,0.00,,,0.00,,2013-04-03 14:32:00,
2013-04-03 10:42:00,37.0,9.0,30.13,NW,320,9.0,24.0,31,0.00,,,0.00,,2013-04-03 14:42:00,
2013-04-03 10:52:00,37.0,9.0,30.13,WNW,295,6.0,24.0,31,0.00,,,0.00,,2013-04-03 14:52:00,
2013-04-03 11:02:00,37.0,8.0,30.13,NW,310,9.0,24.0,30,0.00,,,0.00,,2013-04-03 15:02:00,
2013-04-03 11:12:00,37.0,8.0,30.13,NW,310,9.0,24.0,30,0.00,,,0.00,,2013-04-03 15:12:00,
2013-04-03 11:23:00,38.0,9.0,30.12,WNW,296,9.0,26.0,29,0.00,,,0.00,,2013-04-03 15:23:00,
2013-04-03 11:33:00,39.0,10.0,30.13,WNW,291,3.0,26.0,30,0.00,,,0.00,,2013-04-03 15:33:00,
2013-04-03 11:43:00,39.0,10.0,30.13,WNW,291,3.0,26.0,30,0.00,,,0.00,,2013-04-03 15:43:00,
2013-04-03 11:53:00,39.0,9.0,30.13,NW,311,12.0,26.0,28,0.00,,,0.00,,2013-04-03 15:53:00,
2013-04-03 12:03:00,39.0,9.0,30.13,WNW,301,9.0,26.0,28,0.00,,,0.00,,2013-04-03 16:03:00,
2013-04-03 12:13:00,39.0,9.0,30.13,WNW,301,9.0,26.0,28,0.00,,,0.00,,2013-04-03 16:13:00,
2013-04-03 12:24:00,40.0,9.0,30.13,WNW,287,12.0,26.0,27,0.00,,,0.00,,2013-04-03 16:24:00,
2013-04-03 12:33:00,41.0,10.0,30.12,West,268,7.0,26.0,28,0.00,,,0.00,,2013-04-03 16:33:00,
2013-04-03 12:43:00,41.0,10.0,30.12,West,268,7.0,26.0,28,0.00,,,0.00,,2013-04-03 16:43:00,
2013-04-03 12:52:00,41.0,9.0,30.12,WNW,297,12.0,26.0,26,0.00,,,0.00,,2013-04-03 16:52:00,
2013-04-03 13:03:00,41.0,8.0,30.11,NW,314,6.0,26.0,25,0.00,,,0.00,,2013-04-03 17:03:00,
2013-04-03 13:13:00,41.0,8.0,30.11,NW,314,6.0,26.0,25,0.00,,,0.00,,2013-04-03 17:13:00,
2013-04-03 13:23:00,43.0,9.0,30.11,WNW,283,7.0,26.0,24,0.00,,,0.00,,2013-04-03 17:23:00,
2013-04-03 13:33:00,42.0,10.0,30.11,West,263,7.0,26.0,27,0.00,,,0.00,,2013-04-03 17:33:00,
2013-04-03 13:46:00,42.0,10.0,30.11,West,263,7.0,26.0,27,0.00,,,0.00,,2013-04-03 17:46:00,
2013-04-03 13:54:00,43.0,10.0,30.10,West,281,8.0,26.0,25,0.00,,,0.00,,2013-04-03 17:54:00,
2013-04-03 14:02:00,44.0,10.0,30.10,NW,310,9.0,26.0,25,0.00,,,0.00,,2013-04-03 18:02:00,
2013-04-03 14:13:00,44.0,10.0,30.10,NW,310,9.0,26.0,25,0.00,,,0.00,,2013-04-03 18:13:00,
2013-04-03 14:23:00,43.0,9.0,30.09,WNW,284,8.0,26.0,24,0.00,,,0.00,,2013-04-03 18:23:00,
2013-04-03 14:33:00,44.0,10.0,30.09,NW,320,3.0,26.0,24,0.00,,,0.00,,2013-04-03 18:33:00,
2013-04-03 14:43:00,44.0,10.0,30.09,NW,320,3.0,26.0,24,0.00,,,0.00,,2013-04-03 18:43:00,
2013-04-03 14:52:00,44.0,9.0,30.10,WNW,296,7.0,26.0,23,0.00,,,0.00,,2013-04-03 18:52:00,
2013-04-03 15:03:00,45.0,8.0,30.10,WNW,288,10.0,26.0,22,0.00,,,0.00,,2013-04-03 19:03:00,
2013-04-03 15:12:00,45.0,8.0,30.10,WNW,288,10.0,26.0,22,0.00,,,0.00,,2013-04-03 19:12:00,
2013-04-03 15:22:00,44.0,7.0,30.09,WNW,296,9.0,26.0,21,0.00,,,0.00,,2013-04-03 19:22:00,
2013-04-03 15:32:00,45.0,8.0,30.08,West,271,6.0,26.0,22,0.00,,,0.00,,2013-04-03 19:32:00,
2013-04-03 15:42:00,45.0,8.0,30.08,West,271,6.0,26.0,22,0.00,,,0.00,,2013-04-03 19:42:00,
2013-04-03 15:52:00,45.0,7.0,30.08,WNW,303,10.0,26.0,21,0.00,,,0.00,,2013-04-03 19:52:00,
2013-04-03 16:02:00,45.0,7.0,30.08,WNW,295,6.0,26.0,21,0.00,,,0.00,,2013-04-03 20:02:00,
2013-04-03 16:12:00,45.0,7.0,30.08,WNW,295,6.0,26.0,21,0.00,,,0.00,,2013-04-03 20:12:00,
2013-04-03 16:23:00,46.0,8.0,30.09,NW,313,9.0,26.0,21,0.00,,,0.00,,2013-04-03 20:23:00,
2013-04-03 16:32:00,46.0,9.0,30.09,NNW,329,6.0,26.0,22,0.00,,,0.00,,2013-04-03 20:32:00,
2013-04-03 16:42:00,46.0,9.0,30.09,NNW,329,6.0,26.0,22,0.00,,,0.00,,2013-04-03 20:42:00,
2013-04-03 16:53:00,45.0,8.0,30.09,NW,320,8.0,26.0,22,0.00,,,0.00,,2013-04-03 20:53:00,
2013-04-03 17:02:00,45.0,8.0,30.09,NW,312,8.0,26.0,22,0.00,,,0.00,,2013-04-03 21:02:00,
2013-04-03 17:12:00,45.0,8.0,30.09,NW,312,8.0,26.0,22,0.00,,,0.00,,2013-04-03 21:12:00,
2013-04-03 17:22:00,45.0,8.0,30.10,WNW,296,7.0,32.0,22,0.00,,,0.00,,2013-04-03 21:22:00,
2013-04-03 17:33:00,45.0,7.0,30.10,NNW,335,7.0,32.0,21,0.00,,,0.00,,2013-04-03 21:33:00,
2013-04-03 17:42:00,45.0,7.0,30.10,NNW,335,7.0,32.0,21,0.00,,,0.00,,2013-04-03 21:42:00,
2013-04-03 17:52:00,45.0,9.0,30.11,NW,304,9.0,32.0,23,0.00,,,0.00,,2013-04-03 21:52:00,
2013-04-03 18:02:00,44.0,9.0,30.11,WNW,301,9.0,32.0,23,0.00,,,0.00,,2013-04-03 22:02:00,
2013-04-03 18:12:00,44.0,9.0,30.11,WNW,301,9.0,32.0,23,0.00,,,0.00,,2013-04-03 22:12:00,
2013-04-03 18:22:00,43.0,8.0,30.13,NW,317,15.0,32.0,23,0.00,,,0.00,,2013-04-03 22:22:00,
2013-04-03 18:33:00,43.0,6.0,30.14,NNW,328,14.0,32.0,21,0.00,,,0.00,,2013-04-03 22:33:00,
2013-04-03 18:42:00,43.0,6.0,30.14,NNW,328,14.0,32.0,21,0.00,,,0.00,,2013-04-03 22:42:00,
2013-04-03 18:52:00,43.0,7.0,30.15,WNW,285,6.0,32.0,22,0.00,,,0.00,,2013-04-03 22:52:00,
2013-04-03 19:02:00,42.0,7.0,30.15,NNW,336,6.0,32.0,23,0.00,,,0.00,,2013-04-03 23:02:00,
2013-04-03 19:12:00,42.0,7.0,30.15,NNW,336,6.0,32.0,23,0.00,,,0.00,,2013-04-03 23:12:00,
2013-04-03 19:22:00,41.0,7.0,30.17,NW,308,8.0,32.0,24,0.00,,,0.00,,2013-04-03 23:22:00,
2013-04-03 19:32:00,41.0,7.0,30.17,NW,318,8.0,32.0,24,0.00,,,0.00,,2013-04-03 23:32:00,
2013-04-03 19:42:00,41.0,7.0,30.17,NW,318,8.0,32.0,24,0.00,,,0.00,,2013-04-03 23:42:00,
2013-04-03 19:54:00,41.0,8.0,30.19,NNW,330,9.0,32.0,25,0.00,,,0.00,,2013-04-03 23:54:00,
2013-04-03 20:03:00,40.0,7.0,30.19,WNW,294,6.0,32.0,25,0.00,,,0.00,,2013-04-04 00:03:00,
2013-04-03 20:12:00,40.0,7.0,30.19,WNW,294,6.0,32.0,25,0.00,,,0.00,,2013-04-04 00:12:00,
2013-04-03 20:22:00,40.0,8.0,30.21,WNW,289,5.0,32.0,26,0.00,,,0.00,,2013-04-04 00:22:00,
2013-04-03 20:32:00,39.0,7.0,30.21,NW,305,8.0,32.0,26,0.00,,,0.00,,2013-04-04 00:32:00,
2013-04-03 20:43:00,39.0,7.0,30.21,NW,305,8.0,32.0,26,0.00,,,0.00,,2013-04-04 00:43:00,
2013-04-03 20:52:00,39.0,7.0,30.22,NNW,340,7.0,32.0,26,0.00,,,0.00,,2013-04-04 00:52:00,
2013-04-03 21:02:00,39.0,8.0,30.22,WNW,292,6.0,32.0,27,0.00,,,0.00,,2013-04-04 01:02:00,
2013-04-03 21:12:00,39.0,8.0,30.22,WNW,292,6.0,32.0,27,0.00,,,0.00,,2013-04-04 01:12:00,
2013-04-03 21:22:00,38.0,7.0,30.24,NW,308,8.0,32.0,27,0.00,,,0.00,,2013-04-04 01:22:00,
2013-04-03 21:32:00,38.0,9.0,30.24,NW,304,7.0,32.0,29,0.00,,,0.00,,2013-04-04 01:32:00,
2013-04-03 21:43:00,38.0,9.0,30.24,NW,304,7.0,32.0,29,0.00,,,0.00,,2013-04-04 01:43:00,
2013-04-03 21:52:00,38.0,10.0,30.25,North,357,6.0,32.0,31,0.00,,,0.00,,2013-04-04 01:52:00,
2013-04-03 22:02:00,37.0,8.0,30.25,NW,315,13.0,32.0,29,0.00,,,0.00,,2013-04-04 02:02:00,
2013-04-03 22:12:00,37.0,8.0,30.25,NW,315,13.0,32.0,29,0.00,,,0.00,,2013-04-04 02:12:00,
2013-04-03 22:22:00,37.0,9.0,30.26,NNW,328,7.0,32.0,31,0.00,,,0.00,,2013-04-04 02:22:00,
2013-04-03 22:32:00,37.0,10.0,30.26,North,0,7.0,32.0,32,0.00,,,0.00,,2013-04-04 02:32:00,
2013-04-03 22:42:00,37.0,10.0,30.26,North,0,7.0,32.0,32,0.00,,,0.00,,2013-04-04 02:42:00,
2013-04-03 22:53:00,37.0,10.0,30.26,North,0,7.0,32.0,32,0.00,,,0.00,,2013-04-04 02:53:00,
2013-04-03 23:02:00,37.0,11.0,30.27,NW,312,5.0,32.0,34,0.00,,,0.00,,2013-04-04 03:02:00,
2013-04-03 23:12:00,37.0,11.0,30.27,NW,312,5.0,32.0,34,0.00,,,0.00,,2013-04-04 03:12:00,
2013-04-03 23:22:00,36.0,10.0,30.27,WNW,298,6.0,32.0,34,0.00,,,0.00,,2013-04-04 03:22:00,
2013-04-03 23:33:00,36.0,12.0,30.28,WNW,287,6.0,32.0,36,0.00,,,0.00,,2013-04-04 03:33:00,
2013-04-03 23:45:00,36.0,12.0,30.28,WNW,287,6.0,32.0,36,0.00,,,0.00,,2013-04-04 03:45:00,
2013-04-03 23:53:00,36.0,11.0,30.27,North,350,7.0,32.0,35,0.00,,,0.00,,2013-04-04 03:53:00,